This is the latest recevied telemetry packets stored in our database for station/object DD8XX-12. If no packets are shown the sender has not sent any telemetry packets the latest 10 day(s).
Telemetry packets is used to share measurements like repeteater parameters, battery voltage, radiation readings (or any other measurements).
| Time | Press* | Temp.in* | Hum* | QNH* | Temp.out* |
|---|---|---|---|---|---|
| 1788565163 | 936.3 hPa | 24.1 C deg | 0 % | 1018.3 hPa | 0 C deg |
| 1788563333 | 936.3 hPa | 24.1 C deg | 0 % | 1018.3 hPa | 0 C deg |
| 1788561503 | 936.2 hPa | 24.1 C deg | 0 % | 1018.2 hPa | 0 C deg |
| 1788559673 | 936.1 hPa | 24.2 C deg | 0 % | 1018.1 hPa | 0 C deg |
| 1788557843 | 936 hPa | 24.2 C deg | 0 % | 1017.9 hPa | 0 C deg |
| 1788556013 | 935.9 hPa | 24.2 C deg | 0 % | 1017.8 hPa | 0 C deg |
| 1788554183 | 935.8 hPa | 24.3 C deg | 0 % | 1017.6 hPa | 0 C deg |
| 1788552353 | 935.9 hPa | 24.4 C deg | 0 % | 1017.7 hPa | 0 C deg |
| 1788550523 | 935.7 hPa | 24.6 C deg | 0 % | 1017.5 hPa | 0 C deg |
| 1788548693 | 935.3 hPa | 24.8 C deg | 0 % | 1017 hPa | 0 C deg |
| 1788546863 | 935 hPa | 25.1 C deg | 0 % | 1016.6 hPa | 0 C deg |
| 1788545033 | 934.7 hPa | 25 C deg | 0 % | 1016.2 hPa | 0 C deg |
| 1788543202 | 934.2 hPa | 24.9 C deg | 0 % | 1015.7 hPa | 0 C deg |
| 1788539542 | 933.7 hPa | 24.7 C deg | 0 % | 1015.2 hPa | 0 C deg |
| 1788537712 | 933.6 hPa | 24.8 C deg | 0 % | 1015.2 hPa | 0 C deg |
| 1788535882 | 933.8 hPa | 24.8 C deg | 0 % | 1015.3 hPa | 0 C deg |
| 1788534052 | 933.9 hPa | 24.8 C deg | 0 % | 1015.4 hPa | 0 C deg |
| 1788532222 | 934.1 hPa | 24.5 C deg | 0 % | 1015.8 hPa | 0 C deg |
| 1788530392 | 934.4 hPa | 24.4 C deg | 0 % | 1016 hPa | 0 C deg |
| 1788528562 | 934.7 hPa | 24.4 C deg | 0 % | 1016.4 hPa | 0 C deg |
| 1788526732 | 935.2 hPa | 24.4 C deg | 0 % | 1016.9 hPa | 0 C deg |
| 1788524902 | 935.5 hPa | 24.6 C deg | 0 % | 1017.2 hPa | 0 C deg |
| 1788523072 | 935.9 hPa | 25.2 C deg | 0 % | 1017.5 hPa | 0 C deg |
| 1788521242 | 936.4 hPa | 24.7 C deg | 0 % | 1018.2 hPa | 0 C deg |
| 1788519412 | 937 hPa | 24.6 C deg | 0 % | 1018.8 hPa | 0 C deg |